Regional Weather Roundup
Issued by NWS

Home | Current Version | Previous Version | Text Only | Print | Product List | Glossary On
Versions: 1 2 3 4 5 6 7 8 9 10 11 12 13 14 15 16 17 18 19 20 21 22 23 24 25 26 27 28 29 30 31 32 33 34 35 36 37 38 39 40 41 42 43 44 45 46 47 48 49 50
000
ASCA42 TJSJ 210411
RWRPR
PUERTO RICO/U.S. VIRGIN ISLANDS HOURLY WEATHER ROUNDUP
NATIONAL WEATHER SERVICE SAN JUAN PR
1200 AM AST THU AUG 21 2014

PRZ001-004-210500-
PUERTO RICO

CITY           SKY/WX    TMP DP  RH WIND       PRES   REMARKS
SAN JUAN LMM   PTCLDY    82  77  83 NE12      30.04F HX  91
CEIBA          PTCLDY    82  75  78 NE8       30.05F
$$

PRZ006-007-210500-
U.S. VIRGIN ISLANDS

CITY           SKY/WX    TMP DP  RH WIND       PRES   REMARKS
$$

HOURLY WEATHER ROUNDUP FOR THE NEWS MEDIA

CITY           SKY/WX    TMP DP  RH WIND       PRES   REMARKS
MIAMI          PTCLDY    84  75  74 SE6       30.10S HX  92
ORLANDO        PTCLDY    83  73  72 S7        30.11R
NEW YORK       CLOUDY    71  62  73 SW6       30.04R
NEWARK         CLOUDY    72  62  71 SW5       30.04R
CHICAGO        MOCLDY    75  67  76 SW7       29.95R
HARTFORD       CLEAR     53  52  96 CALM      30.04F
BOSTON         PTCLDY    63  60  90 CALM      30.06S
DALLAS         CLEAR     85  71  63 S16G26    29.95R HX  90
PHILADELPHIA   CLOUDY    73  63  70 S5        30.04R



USA.gov is the U.S. government's official web portal to all federal, state and local government web resources and services.